Location: Shepherdstown, WV
(39.4326°N, 77.8042°W)
Time: 06:13:38
(UTC-04:00)

Tiros 1 despin weight - Pass Details

Date: 29 July 2021
Orbit: 594 x 641 km, 48.2° (Epoch: 16 September)

Event Time Altitude Azimuth Distance (km) Brightness Sun altitude
Rises 21:02:20 0° 301° (WNW) 2,935 ? -7.0°
Reaches altitude 10° 21:04:41 10° 301° (WNW) 2,020 ? -7.4°
Maximum altitude 21:09:20 88° 218° (SW) 634 ? -8.1°
Enters shadow 21:13:41 11° 124° (ESE) 1,893 ? -8.8°
